This is the latest recevied weather packets stored in our database for station/object KB4RFE. If no packets are shown the sender has not sent any weather packets the latest 10 day(s).
| Time | Temp. | Humidity | Pressure | Rain* | Wind** | Luminosity | Snow |
|---|---|---|---|---|---|---|---|
| 1777851747 | 17.78° C | 59% | 1020.4 hPa | 0 mm | - | 17 W/m² | - |
| 1777851444 | 18.33° C | 60% | 1020 hPa | 0 mm | - | 23 W/m² | - |
| 1777851139 | 18.33° C | 60% | 1020.2 hPa | 0 mm | - | 26 W/m² | - |
| 1777850837 | 18.33° C | 59% | 1020.4 hPa | 0 mm | - | 29 W/m² | - |
| 1777850534 | 18.33° C | 60% | 1020.2 hPa | 0 mm | - | 31 W/m² | - |
| 1777850232 | 18.33° C | 59% | 1020.3 hPa | 0 mm | - | 36 W/m² | - |
| 1777849928 | 18.33° C | 59% | 1020.2 hPa | 0 mm | - | 35 W/m² | - |
| 1777849625 | 18.33° C | 60% | 1020.2 hPa | 0 mm | - | 35 W/m² | - |
| 1777849322 | 18.33° C | 60% | 1020 hPa | 0 mm | - | 40 W/m² | - |
| 1777849019 | 18.33° C | 60% | 1020.2 hPa | 0 mm | - | 45 W/m² | - |
| 1777848719 | 18.33° C | 60% | 1020.3 hPa | 0 mm | - | 46 W/m² | - |
| 1777848417 | 18.33° C | 60% | 1020.2 hPa | 0 mm | - | 47 W/m² | - |
| 1777848115 | 18.33° C | 60% | 1020.2 hPa | 0 mm | - | 46 W/m² | - |
| 1777847812 | 18.33° C | 59% | 1020.1 hPa | 0 mm | - | 52 W/m² | - |
| 1777847509 | 18.33° C | 58% | 1020.3 hPa | 0 mm | - | 52 W/m² | - |
| 1777847206 | 18.89° C | 58% | 1020 hPa | 0 mm | - | 58 W/m² | - |
| 1777846903 | 18.89° C | 56% | 1020 hPa | 0 mm | - | 64 W/m² | - |
| 1777846602 | 18.89° C | 58% | 1020 hPa | 0 mm | - | 65 W/m² | - |
| 1777846299 | 18.89° C | 57% | 1020 hPa | 0 mm | - | 76 W/m² | - |
| 1777845995 | 18.89° C | 59% | 1020 hPa | 0 mm | - | 62 W/m² | - |
| 1777845692 | 18.89° C | 56% | 1020 hPa | 0 mm | - | 64 W/m² | - |
| 1777845390 | 18.89° C | 57% | 1020 hPa | 0 mm | - | 94 W/m² | - |
| 1777845086 | 18.89° C | 55% | 1019.9 hPa | 0 mm | - | 87 W/m² | - |
| 1777844785 | 18.89° C | 55% | 1020.1 hPa | 0 mm | - | 109 W/m² | - |
| 1777844481 | 18.89° C | 54% | 1020 hPa | 0 mm | - | 121 W/m² | - |
* Rain latest hour (hover to see other rain measurements)
** Current wind speed in m/s (hover to see current wind gust speed)